period_start,C,m1,H,J0,J1,J2,J3,J4,J5,JA,JB,JC,JD,JJ,JK,JN,#
2016-07-12 00:00:38,-0.01,0.02,0.00,16.47,19.61,23.36,14.63,44.26,1006.86,2073.26,3585.41,3202.91,3642.89,600.40,603.95,1.67,0000 0000 0000 0000 000000
2016-07-12 00:05:39,-0.00,0.02,0.00,16.57,19.78,23.50,14.69,44.27,1006.86,2072.64,3584.16,3201.79,3641.53,600.03,603.46,1.72,0000 0000 0000 0000 000000
2016-07-12 00:10:40,0.03,0.02,0.00,16.67,19.94,23.57,14.61,44.21,1006.88,2072.00,3583.09,3200.71,3640.24,600.00,603.25,1.77,0000 0000 0000 0000 000000
2016-07-12 00:15:42,-0.01,0.02,0.00,16.76,20.10,23.73,14.67,44.21,1006.92,2071.22,3581.89,3199.53,3638.82,600.07,602.93,1.82,0000 0000 0000 0000 000000
2016-07-12 00:20:43,0.03,0.02,0.00,16.84,20.24,23.88,14.65,44.26,1006.98,2070.54,3580.21,3197.75,3636.66,600.01,602.81,1.87,0000 0000 0000 0000 000000
2016-07-12 00:25:44,0.10,0.03,0.00,16.91,20.39,23.99,14.65,44.19,1007.10,2069.99,3577.79,3195.44,3633.89,599.92,602.76,1.92,0000 0000 0000 0000 000000
2016-07-12 00:30:45,-0.03,0.03,0.00,16.99,20.54,24.12,14.61,44.13,1007.30,2069.19,3576.64,3194.35,3632.56,599.90,602.70,1.97,0000 0000 0000 0000 000000
2016-07-12 00:35:46,0.03,0.03,0.00,17.06,20.68,24.20,14.68,44.01,1007.34,2068.86,3575.51,3193.39,3631.44,600.02,602.67,2.02,0000 0000 0000 0000 000000
2016-07-12 00:40:48,0.02,0.03,0.00,17.13,20.81,24.29,14.64,44.02,1007.34,2068.08,3574.09,3192.05,3629.79,599.92,602.51,2.07,0000 0000 0000 0000 000000
2016-07-12 00:45:49,0.03,0.03,0.00,17.19,20.95,24.43,14.62,44.04,1007.33,2067.72,3572.30,3190.30,3627.87,600.10,602.50,2.12,0000 0000 0000 0000 000000
2016-07-12 00:50:50,0.01,0.03,0.00,17.25,21.08,24.54,14.62,44.13,1007.33,2067.04,3571.45,3189.46,3626.74,600.08,602.35,2.17,0000 0000 0000 0000 000000
2016-07-12 00:55:51,-0.01,0.03,0.00,17.32,21.20,24.71,14.63,44.15,1007.34,2066.60,3570.49,3188.57,3625.72,599.65,601.86,2.22,0000 0000 0000 0000 000000
2016-07-12 01:00:53,0.02,0.03,0.00,17.41,21.33,24.82,14.62,44.08,1007.34,2066.02,3569.59,3187.73,3624.70,600.03,601.91,2.27,0000 0000 0000 0000 000000
2016-07-12 01:05:54,-0.01,0.03,0.00,17.47,21.45,24.98,14.65,44.17,1007.34,2065.67,3568.57,3186.92,3623.68,600.11,601.98,2.32,0000 0000 0000 0000 000000
2016-07-12 01:10:55,0.00,0.03,0.00,17.52,21.57,25.09,14.61,44.03,1007.34,2065.02,3567.83,3186.04,3622.69,599.83,601.50,2.37,0000 0000 0000 0000 000000
2016-07-12 01:15:56,-0.01,0.03,0.00,17.56,21.68,25.20,14.68,44.05,1007.36,2064.66,3566.92,3185.18,3621.70,599.72,601.25,2.42,0000 0000 0000 0000 000000
2016-07-12 01:20:58,0.01,0.03,0.00,17.63,21.79,25.33,14.62,44.02,1007.47,2064.03,3566.05,3184.43,3620.80,600.23,601.73,2.47,0000 0000 0000 0000 000000
2016-07-12 01:25:59,0.03,0.03,0.00,17.72,21.89,25.46,14.60,44.02,1007.64,2063.79,3565.06,3183.47,3619.45,600.08,601.59,2.52,0000 0000 0000 0000 000000
2016-07-12 01:31:00,-0.01,0.03,0.00,17.79,22.00,25.57,14.68,43.93,1007.81,2063.05,3564.00,3182.61,3618.31,600.31,601.77,2.57,0000 0000 0000 0000 000000
2016-07-12 01:36:01,0.01,0.03,0.00,17.85,22.10,25.70,14.66,44.00,1007.82,2062.82,3563.18,3181.89,3617.40,600.04,601.42,2.62,0000 0000 0000 0000 000000
2016-07-12 01:41:03,-0.02,0.03,0.00,17.86,22.20,25.79,14.62,43.98,1007.83,2062.08,3562.40,3181.06,3616.49,599.91,601.32,2.67,0000 0000 0000 0000 000000
2016-07-12 01:46:04,0.03,0.03,0.00,17.91,22.30,25.90,14.62,44.08,1007.83,2061.96,3561.72,3180.37,3615.68,599.91,601.11,2.72,0000 0000 0000 0000 000000
2016-07-12 01:51:05,-0.05,0.03,0.00,17.97,22.39,26.02,14.64,43.89,1007.83,2061.19,3561.02,3179.81,3614.92,600.08,601.22,2.77,0000 0000 0000 0000 000000
2016-07-12 01:56:06,0.04,0.03,0.00,18.03,22.48,26.12,14.63,43.88,1007.83,2060.99,3560.33,3179.04,3614.08,599.83,600.78,2.82,0000 0000 0000 0000 000000
2016-07-12 02:01:08,-0.02,0.03,0.00,18.05,22.57,26.21,14.62,43.95,1007.84,2060.62,3559.85,3178.45,3613.35,600.10,600.98,2.87,0000 0000 0000 0000 000000
2016-07-12 02:06:09,-0.01,0.03,0.00,18.10,22.65,26.32,14.66,43.83,1007.86,2060.03,3559.08,3177.98,3612.79,599.88,600.71,2.92,0000 0000 0000 0000 000000
2016-07-12 02:11:10,0.03,0.03,0.00,18.14,22.74,26.41,14.69,43.98,1007.85,2059.97,3558.52,3177.29,3611.97,600.35,601.14,2.97,0000 0000 0000 0000 000000
2016-07-12 02:16:11,-0.04,0.03,0.00,18.18,22.82,26.51,14.68,43.91,1007.89,2059.43,3557.89,3176.74,3611.08,600.19,600.86,3.02,0000 0000 0000 0000 000000
2016-07-12 02:21:13,0.02,0.03,0.00,18.22,22.90,26.59,14.68,43.98,1008.01,2059.01,3557.07,3176.03,3610.41,599.94,600.55,3.07,0000 0000 0000 0000 000000
2016-07-12 02:26:13,0.02,0.03,0.00,18.28,22.98,26.67,14.67,43.97,1008.11,2058.99,3556.72,3175.72,3609.90,599.62,600.19,3.12,0000 0000 0000 0000 000000
2016-07-12 02:31:14,-0.03,0.04,0.00,18.31,23.05,26.75,14.65,44.01,1008.26,2058.46,3556.03,3175.03,3609.09,600.05,600.69,3.17,0000 0000 0000 0000 000000
2016-07-12 02:36:16,0.02,0.03,0.00,18.34,23.13,26.82,14.70,43.98,1008.29,2058.03,3555.53,3174.59,3608.56,600.14,600.80,3.22,0000 0000 0000 0000 000000
2016-07-12 02:41:17,0.01,0.04,0.00,18.41,23.21,26.88,14.71,44.00,1008.30,2057.99,3555.02,3174.01,3607.99,599.99,600.57,3.27,0000 0000 0000 0000 000000
2016-07-12 02:46:19,-0.01,0.04,0.00,18.41,23.28,26.95,14.63,44.08,1008.31,2057.63,3554.37,3173.49,3607.23,599.98,600.43,3.32,0000 0000 0000 0000 000000
2016-07-12 02:51:20,-0.02,0.03,0.00,18.44,23.35,26.99,14.58,43.98,1008.31,2057.03,3553.95,3172.99,3606.66,599.85,600.25,3.37,0000 0000 0000 0000 000000
2016-07-12 02:56:21,0.03,0.04,0.00,18.51,23.42,27.10,14.64,44.19,1008.31,2056.99,3553.18,3172.43,3606.02,599.94,600.21,3.42,0000 0000 0000 0000 000000
2016-07-12 03:01:22,-0.00,0.04,0.00,18.56,23.49,27.18,14.65,44.05,1008.31,2056.91,3552.99,3172.01,3605.56,599.70,599.84,3.47,0000 0000 0000 0000 000000
2016-07-12 03:06:24,-0.03,0.04,0.00,18.60,23.56,27.24,14.67,44.03,1008.32,2056.26,3552.22,3171.55,3604.93,600.34,600.39,3.52,0000 0000 0000 0000 000000
2016-07-12 03:11:25,0.01,0.04,0.00,18.66,23.63,27.30,14.63,44.03,1008.33,2056.01,3551.95,3171.00,3604.12,599.98,599.93,3.57,0000 0000 0000 0000 000000
2016-07-12 03:16:27,0.03,0.04,0.00,18.69,23.70,27.38,14.67,44.08,1008.33,2055.98,3551.26,3170.58,3603.84,599.71,599.62,3.62,0000 0000 0000 0000 000000
2016-07-12 03:21:28,-0.04,0.04,0.00,18.72,23.77,27.45,14.72,44.08,1008.38,2055.53,3550.93,3170.03,3603.07,600.29,600.19,3.67,0000 0000 0000 0000 000000
2016-07-12 03:26:29,0.00,0.03,0.00,18.79,23.84,27.50,14.59,44.02,1008.58,2055.04,3550.13,3169.85,3602.79,599.61,599.41,3.72,0000 0000 0000 0000 000000
2016-07-12 03:31:31,0.02,0.04,0.00,18.83,23.90,27.57,14.65,44.17,1008.75,2055.00,3549.89,3169.08,3602.04,599.78,599.68,3.77,0000 0000 0000 0000 000000
2016-07-12 03:36:32,0.02,0.04,0.00,18.84,23.97,27.65,14.68,44.12,1008.80,2054.97,3549.10,3168.91,3601.49,600.10,599.86,3.82,0000 0000 0000 0000 000000
2016-07-12 03:41:33,-0.03,0.04,0.00,18.89,24.03,27.69,14.69,44.17,1008.80,2054.52,3548.83,3168.12,3600.99,600.20,599.95,3.87,0000 0000 0000 0000 000000
2016-07-12 03:46:34,0.01,0.04,0.00,18.92,24.09,27.74,14.67,44.05,1008.80,2054.02,3548.06,3167.90,3600.21,600.07,599.79,3.92,0000 0000 0000 0000 000000
2016-07-12 03:51:35,0.02,0.04,0.00,19.00,24.15,27.78,14.59,44.05,1008.80,2053.99,3547.86,3167.11,3599.92,599.77,599.33,3.97,0000 0000 0000 0000 000000
2016-07-12 03:56:37,0.01,0.04,0.00,19.06,24.22,27.83,14.66,44.11,1008.80,2053.83,3547.09,3166.94,3599.13,599.99,599.41,4.03,0000 0000 0000 0000 000000
2016-07-12 04:01:38,-0.04,0.04,0.00,19.09,24.27,27.91,14.59,43.98,1008.81,2053.25,3546.98,3166.33,3598.96,599.93,599.35,4.08,0000 0000 0000 0000 000000
2016-07-12 04:06:39,0.02,0.04,0.00,19.14,24.33,27.94,14.60,43.91,1008.82,2053.01,3546.39,3166.00,3598.23,599.94,599.20,4.13,0000 0000 0000 0000 000000
2016-07-12 04:11:40,0.00,0.04,0.00,19.21,24.39,27.98,14.66,44.03,1008.85,2052.99,3546.00,3165.76,3597.96,599.99,599.20,4.18,0000 0000 0000 0000 000000
2016-07-12 04:16:42,0.03,0.04,0.00,19.22,24.45,28.05,14.58,43.98,1008.88,2052.90,3545.32,3165.06,3597.14,599.98,599.17,4.23,0000 0000 0000 0000 000000
2016-07-12 04:21:43,-0.05,0.04,0.00,19.27,24.50,28.08,14.61,43.95,1008.89,2052.32,3545.00,3164.94,3596.91,599.85,598.92,4.28,0000 0000 0000 0000 000000
2016-07-12 04:26:44,0.03,0.04,0.00,19.37,24.56,28.16,14.68,44.03,1009.13,2052.01,3544.54,3164.20,3596.13,600.01,599.01,4.33,0000 0000 0000 0000 000000
2016-07-12 04:31:45,0.00,0.04,0.00,19.42,24.62,28.20,14.71,44.06,1009.27,2051.99,3544.02,3164.00,3595.97,600.27,599.11,4.38,0000 0000 0000 0000 000000
2016-07-12 04:36:47,0.03,0.04,0.00,19.45,24.67,28.22,14.55,44.10,1009.29,2051.93,3543.78,3163.62,3595.21,599.73,598.70,4.43,0000 0000 0000 0000 000000
2016-07-12 04:41:48,-0.04,0.04,0.00,19.53,24.73,28.25,14.64,44.10,1009.29,2051.32,3543.04,3163.02,3594.94,600.07,598.77,4.48,0000 0000 0000 0000 000000
2016-07-12 04:46:49,0.00,0.04,0.00,19.58,24.79,28.27,14.61,44.00,1009.29,2051.03,3542.96,3162.90,3594.17,599.92,598.56,4.53,0000 0000 0000 0000 000000
2016-07-12 04:51:51,0.03,0.04,0.00,19.60,24.84,28.26,14.62,43.99,1009.29,2050.99,3542.18,3162.13,3593.97,599.85,598.46,4.58,0000 0000 0000 0000 000000
2016-07-12 04:56:52,0.01,0.04,0.00,19.62,24.89,28.27,14.67,44.05,1009.29,2050.95,3542.00,3162.00,3593.28,600.06,598.52,4.63,0000 0000 0000 0000 000000
2016-07-12 05:01:54,-0.05,0.04,0.00,19.69,24.95,28.30,14.58,43.94,1009.29,2050.28,3541.78,3161.58,3592.97,599.98,598.46,4.68,0000 0000 0000 0000 000000
2016-07-12 05:06:55,0.02,0.04,0.00,19.74,24.99,28.36,14.64,44.07,1009.31,2050.02,3541.09,3161.03,3592.24,600.32,598.60,4.73,0000 0000 0000 0000 000000
2016-07-12 05:11:56,0.00,0.04,0.00,19.77,25.05,28.42,14.57,44.05,1009.36,2050.00,3540.98,3160.98,3592.00,599.96,598.34,4.78,0000 0000 0000 0000 000000
2016-07-12 05:16:57,0.04,0.04,0.00,19.79,25.10,28.40,14.63,44.10,1009.50,2049.96,3540.43,3160.41,3591.52,599.93,598.18,4.83,0000 0000 0000 0000 000000
2016-07-12 05:21:59,-0.06,0.04,0.00,19.83,25.15,28.45,14.55,44.03,1009.69,2049.32,3540.01,3160.01,3591.01,599.98,598.31,4.88,0000 0000 0000 0000 000000
2016-07-12 05:27:00,0.02,0.04,0.00,19.85,25.21,28.45,14.66,44.13,1009.76,2049.02,3539.75,3159.71,3590.44,600.18,598.53,4.93,0000 0000 0000 0000 000000
2016-07-12 05:32:01,0.02,0.04,0.00,19.90,25.26,28.41,14.58,44.05,1009.77,2048.99,3539.10,3159.06,3590.01,599.99,598.35,4.98,0000 0000 0000 0000 000000
2016-07-12 05:37:02,0.00,0.04,0.00,19.95,25.31,28.47,14.67,44.01,1009.77,2048.96,3538.98,3158.99,3589.66,600.05,598.27,5.03,0000 0000 0000 0000 000000
2016-07-12 05:42:04,-0.03,0.04,0.00,19.97,25.36,28.52,14.67,43.92,1009.77,2048.28,3538.49,3158.39,3589.02,600.11,598.26,5.08,0000 0000 0000 0000 000000
2016-07-12 05:47:05,0.00,0.04,0.00,20.02,25.41,28.55,14.57,43.88,1009.78,2048.04,3538.02,3158.02,3588.77,600.11,598.15,5.13,0000 0000 0000 0000 000000
2016-07-12 05:52:06,0.00,0.04,0.00,20.06,25.46,28.60,14.56,43.84,1009.78,2048.00,3537.98,3157.94,3588.09,599.91,597.95,5.18,0000 0000 0000 0000 000000
2016-07-12 05:57:08,0.02,0.04,0.00,20.11,25.52,28.60,14.56,43.87,1009.82,2047.88,3537.42,3157.29,3587.90,599.99,597.92,5.23,0000 0000 0000 0000 000000
2016-07-12 06:02:09,-0.04,0.04,0.00,20.19,25.56,28.64,14.63,43.94,1009.99,2047.14,3536.99,3157.00,3587.09,600.12,597.95,5.28,0000 0000 0000 0000 000000
2016-07-12 06:07:10,0.02,0.04,0.00,20.23,25.61,28.71,14.64,43.93,1010.21,2047.01,3536.64,3156.61,3586.95,600.06,597.87,5.33,0000 0000 0000 0000 000000
2016-07-12 06:12:11,0.02,0.04,0.00,20.28,25.66,28.78,14.56,43.91,1010.27,2047.00,3536.03,3156.06,3586.28,599.71,597.48,5.38,0000 0000 0000 0000 000000
2016-07-12 06:17:12,0.00,0.04,0.00,20.32,25.71,28.82,14.60,43.92,1010.27,2047.00,3535.94,3155.97,3585.98,599.88,597.61,5.43,0000 0000 0000 0000 000000
2016-07-12 06:22:13,0.04,0.04,0.00,20.35,25.76,28.86,14.56,43.94,1010.27,2046.97,3535.36,3155.43,3585.40,599.64,597.36,5.48,0000 0000 0000 0000 000000
2016-07-12 06:27:14,-0.01,0.04,0.00,20.40,25.80,28.87,14.60,43.82,1010.28,2046.83,3535.02,3155.02,3585.02,600.28,597.88,5.53,0000 0000 0000 0000 000000
2016-07-12 06:32:15,-0.05,0.04,0.00,20.44,25.85,28.93,14.57,43.63,1010.27,2046.16,3534.94,3154.97,3584.82,599.89,597.35,5.58,0000 0000 0000 0000 000000
2016-07-12 06:37:16,0.03,0.04,0.00,20.50,25.89,28.99,14.63,43.64,1010.29,2046.01,3534.25,3154.49,3584.10,600.36,597.72,5.63,0000 0000 0000 0000 000000
2016-07-12 06:42:18,0.01,0.04,0.00,20.57,25.93,29.02,14.57,43.69,1010.33,2046.00,3534.01,3154.02,3583.99,600.05,597.33,5.68,0000 0000 0000 0000 000000
2016-07-12 06:47:19,0.01,0.04,0.00,20.62,25.98,29.05,14.57,43.63,1010.55,2045.94,3533.84,3153.97,3583.49,599.93,597.22,5.73,0000 0000 0000 0000 000000
2016-07-12 06:52:20,-0.01,0.04,0.00,20.64,26.02,29.14,14.56,43.66,1010.70,2045.62,3533.26,3153.53,3583.02,600.03,597.32,5.78,0000 0000 0000 0000 000000
2016-07-12 06:57:22,-0.02,0.04,0.00,20.71,26.06,29.17,14.56,43.69,1010.73,2045.07,3533.00,3153.02,3582.99,599.90,597.17,5.83,0000 0000 0000 0000 000000
2016-07-12 07:02:23,0.00,0.04,0.00,20.77,26.11,29.19,14.55,43.79,1010.75,2045.02,3532.90,3153.00,3582.78,599.97,597.08,5.88,0000 0000 0000 0000 000000
2016-07-12 07:07:24,0.02,0.04,0.00,20.83,26.15,29.24,14.48,43.80,1010.76,2045.00,3532.27,3152.79,3582.09,600.02,597.00,5.93,0000 0000 0000 0000 000000
2016-07-12 07:12:26,0.02,0.04,0.00,20.88,26.20,29.33,14.56,43.73,1010.76,2044.99,3531.99,3152.04,3581.94,600.07,596.95,5.98,0000 0000 0000 0000 000000
2016-07-12 07:17:27,0.00,0.04,0.00,20.93,26.24,29.37,14.51,43.77,1010.76,2044.93,3531.77,3152.00,3581.41,599.98,596.86,6.03,0000 0000 0000 0000 000000
2016-07-12 07:22:28,-0.03,0.04,0.00,21.07,26.28,29.44,14.56,43.88,1010.76,2044.43,3531.11,3151.85,3581.01,600.01,596.51,6.08,0000 0000 0000 0000 000000
2016-07-12 07:27:30,0.01,0.04,0.00,22.22,26.34,29.68,14.43,43.61,1010.76,2044.04,3531.00,3151.08,3580.56,599.77,593.96,6.13,0000 0000 0000 0000 000000
2016-07-12 07:32:31,0.02,0.04,0.00,22.89,26.41,29.58,14.32,43.42,1010.77,2044.00,3530.74,3150.81,3579.99,599.79,592.75,6.18,0000 0000 0000 0000 000000
2016-07-12 07:37:32,0.01,0.04,0.00,23.15,26.49,29.51,14.35,43.35,1010.83,2043.81,3530.04,3150.07,3579.23,600.10,592.38,6.23,0000 0000 0000 0000 000000
2016-07-12 07:42:34,-0.03,0.04,0.00,23.35,26.57,29.55,14.36,43.22,1010.98,2043.09,3529.68,3149.66,3578.67,600.25,592.28,6.28,0000 0000 0000 0000 000000
2016-07-12 07:47:35,0.01,0.04,0.00,23.51,26.66,29.68,14.31,43.24,1011.20,2043.00,3529.02,3149.01,3578.01,600.09,591.93,6.33,0000 0000 0000 0000 000000
2016-07-12 07:52:36,-0.00,0.04,0.00,23.62,26.75,29.80,14.31,43.36,1011.24,2042.61,3528.29,3148.34,3577.24,599.98,591.57,6.39,0000 0000 0000 0000 000000
2016-07-12 07:57:37,-0.01,0.04,0.00,23.68,26.84,29.89,14.27,43.25,1011.25,2042.03,3527.77,3147.85,3576.47,599.83,591.32,6.44,0000 0000 0000 0000 000000
2016-07-12 08:02:39,0.03,0.04,0.00,23.73,26.93,29.99,14.34,43.20,1011.26,2041.98,3527.03,3147.07,3575.83,599.95,591.39,6.49,0000 0000 0000 0000 000000
2016-07-12 08:07:40,-0.03,0.04,0.00,23.87,27.02,30.07,14.34,43.30,1011.34,2041.27,3526.33,3146.48,3575.02,600.23,591.46,6.54,0000 0000 0000 0000 000000
2016-07-12 08:12:41,0.23,0.04,0.00,23.82,27.11,30.14,14.29,43.33,1011.45,2041.00,3524.16,3144.02,3572.07,600.18,591.38,6.59,0000 0000 0000 0000 000000
2016-07-12 08:17:42,0.16,0.06,0.00,23.61,27.19,30.26,14.36,43.41,1011.63,2040.63,3518.96,3138.11,3565.21,600.21,592.15,6.64,0000 0000 0000 0000 000000
2016-07-12 08:22:43,0.01,0.06,0.00,23.69,27.27,30.30,14.24,43.14,1011.73,2040.03,3518.04,3137.11,3564.12,599.89,591.68,6.69,0000 0000 0000 0000 000000
2016-07-12 08:27:45,0.03,0.06,0.00,23.80,27.35,30.35,14.28,43.30,1011.73,2039.96,3517.48,3136.57,3563.48,600.02,591.59,6.74,0000 0000 0000 0000 000000
2016-07-12 08:32:46,0.23,0.07,0.00,23.72,27.43,30.42,14.37,43.17,1011.73,2039.42,3514.53,3133.37,3559.86,600.10,591.81,6.79,0000 0000 0000 0000 000000
2016-07-12 08:37:47,0.42,0.09,0.00,23.83,27.50,30.47,14.27,43.17,1011.75,2039.01,3505.67,3123.97,3548.80,599.90,591.53,6.84,0000 0000 0000 0000 000000
2016-07-12 08:42:48,0.01,0.10,0.00,23.89,27.57,30.52,14.33,43.03,1011.78,2038.88,3504.61,3122.99,3547.19,599.99,591.40,6.89,0000 0000 0000 0000 000000
2016-07-12 08:47:50,-0.03,0.10,0.00,23.93,27.63,30.58,14.27,42.88,1011.86,2038.26,3504.02,3122.30,3546.88,599.90,591.29,6.94,0000 0000 0000 0000 000000
2016-07-12 08:52:51,0.01,0.10,0.00,23.98,27.69,30.63,14.29,43.00,1012.10,2038.02,3503.70,3121.99,3546.10,599.97,591.25,6.99,0000 0000 0000 0000 000000
2016-07-12 08:57:52,0.02,0.10,0.00,24.03,27.75,30.69,14.34,43.14,1012.22,2038.00,3503.07,3121.63,3545.88,600.25,591.45,7.04,0000 0000 0000 0000 000000
2016-07-12 09:02:53,-0.02,0.10,0.00,24.06,27.81,30.71,14.30,43.06,1012.22,2037.75,3502.89,3121.02,3545.10,599.80,591.18,7.09,0000 0000 0000 0000 000000
2016-07-12 09:07:54,-0.03,0.09,0.00,24.11,27.86,30.74,14.23,43.17,1012.22,2037.14,3502.12,3120.85,3544.91,599.83,591.07,7.14,0000 0000 0000 0000 000000
2016-07-12 09:12:55,0.02,0.10,0.00,24.16,27.91,30.77,14.22,43.10,1012.23,2037.01,3501.98,3120.11,3544.11,599.71,590.99,7.19,0000 0000 0000 0000 000000
2016-07-12 09:17:57,0.01,0.10,0.00,24.19,27.95,30.81,14.31,42.98,1012.24,2037.00,3501.45,3120.00,3543.98,599.74,590.81,7.24,0000 0000 0000 0000 000000
2016-07-12 09:22:58,0.02,0.10,0.00,24.20,27.99,30.84,14.33,43.06,1012.29,2036.93,3501.04,3119.70,3543.43,599.89,590.99,7.29,0000 0000 0000 0000 000000
2016-07-12 09:27:59,-0.04,0.10,0.00,24.25,28.03,30.86,14.27,43.02,1012.41,2036.53,3500.97,3119.06,3543.00,599.97,591.06,7.34,0000 0000 0000 0000 000000
2016-07-12 09:33:01,-0.01,0.09,0.00,24.25,28.07,30.87,14.25,43.10,1012.65,2036.07,3500.49,3119.00,3542.89,599.58,590.93,7.39,0000 0000 0000 0000 000000
2016-07-12 09:38:02,0.01,0.10,0.00,24.26,28.11,30.91,14.30,43.17,1012.71,2036.00,3500.01,3118.83,3542.17,600.23,591.28,7.44,0000 0000 0000 0000 000000
2016-07-12 09:43:03,0.01,0.10,0.00,24.31,28.14,30.92,14.30,43.17,1012.71,2035.99,3499.94,3118.20,3542.00,599.86,591.01,7.49,0000 0000 0000 0000 000000
2016-07-12 09:48:05,0.01,0.10,0.00,24.29,28.17,30.95,14.28,43.16,1012.71,2035.98,3499.48,3118.01,3541.87,600.07,591.18,7.54,0000 0000 0000 0000 000000
2016-07-12 09:53:06,0.00,0.10,0.00,24.27,28.19,30.98,14.28,43.10,1012.71,2035.90,3499.08,3117.99,3541.36,599.65,590.85,7.59,0000 0000 0000 0000 000000
2016-07-12 09:58:07,-0.04,0.10,0.00,24.29,28.22,31.00,14.29,42.98,1012.73,2035.44,3499.00,3117.85,3541.01,600.03,591.13,7.64,0000 0000 0000 0000 000000
2016-07-12 10:03:08,-0.00,0.10,0.00,24.30,28.24,31.02,14.32,42.98,1012.72,2035.06,3498.94,3117.27,3540.93,600.30,591.41,7.69,0000 0000 0000 0000 000000
2016-07-12 10:08:09,0.02,0.10,0.00,24.28,28.26,31.05,14.34,43.01,1012.75,2035.01,3498.28,3117.01,3540.24,600.01,591.28,7.74,0000 0000 0000 0000 000000
2016-07-12 10:13:10,0.00,0.10,0.00,24.30,28.29,31.07,14.35,43.02,1012.82,2035.00,3498.01,3117.00,3540.01,600.09,591.33,7.79,0000 0000 0000 0000 000000
2016-07-12 10:18:12,0.00,0.10,0.00,24.27,28.31,31.08,14.32,43.13,1012.98,2035.00,3498.00,3117.00,3540.00,599.95,591.21,7.84,0000 0000 0000 0000 000000
2016-07-12 10:23:13,-0.00,0.10,0.00,24.26,28.32,31.10,14.28,43.13,1013.07,2034.98,3497.99,3116.96,3539.98,600.27,591.71,7.89,0000 0000 0000 0000 000000
2016-07-12 10:28:14,0.00,0.10,0.00,24.24,28.35,31.12,14.37,43.15,1013.09,2034.91,3497.95,3116.89,3539.50,599.98,591.46,7.94,0000 0000 0000 0000 000000
2016-07-12 10:33:15,0.01,0.10,0.00,24.22,28.36,31.14,14.24,42.99,1013.11,2034.67,3497.42,3116.38,3539.07,599.54,591.11,7.99,0000 0000 0000 0000 000000
2016-07-12 10:38:17,-0.03,0.10,0.00,24.21,28.37,31.16,14.39,43.01,1013.17,2034.27,3497.05,3116.07,3539.00,600.27,591.84,8.04,0000 0000 0000 0000 000000
2016-07-12 10:43:18,-0.00,0.10,0.00,24.19,28.39,31.19,14.30,43.02,1013.19,2034.19,3497.02,3116.03,3539.00,599.94,591.52,8.09,0000 0000 0000 0000 000000
2016-07-12 10:48:19,-0.01,0.10,0.00,24.19,28.40,31.20,14.33,43.04,1013.20,2034.13,3496.95,3115.97,3538.93,599.83,591.48,8.14,0000 0000 0000 0000 000000
2016-07-12 10:53:20,0.04,0.10,0.00,24.18,28.41,31.21,14.37,43.12,1013.20,2034.05,3496.08,3115.27,3538.08,600.07,591.73,8.19,0000 0000 0000 0000 000000
2016-07-12 10:58:21,0.00,0.10,0.00,24.18,28.42,31.23,14.34,43.02,1013.20,2034.03,3495.99,3115.02,3538.00,599.63,591.17,8.24,0000 0000 0000 0000 000000
2016-07-12 11:03:23,0.00,0.10,0.00,24.17,28.43,31.24,14.28,42.88,1013.20,2034.00,3495.99,3115.00,3537.96,599.71,591.41,8.29,0000 0000 0000 0000 000000
2016-07-12 11:08:24,0.00,0.10,0.00,24.17,28.45,31.25,14.37,43.01,1013.20,2034.00,3495.98,3115.00,3537.88,600.07,591.77,8.34,0000 0000 0000 0000 000000
2016-07-12 11:13:25,0.01,0.10,0.00,24.22,28.45,31.23,14.32,43.05,1013.21,2034.00,3495.95,3114.99,3537.53,599.95,591.55,8.39,0000 0000 0000 0000 000000
2016-07-12 11:18:26,0.00,0.10,0.00,24.26,28.47,31.23,14.32,43.11,1013.22,2034.00,3495.87,3114.99,3537.24,599.81,591.35,8.44,0000 0000 0000 0000 000000
2016-07-12 11:23:27,0.01,0.10,0.00,24.25,28.47,31.24,14.31,43.04,1013.22,2034.00,3495.54,3114.98,3537.04,599.92,591.46,8.49,0000 0000 0000 0000 000000
2016-07-12 11:28:29,-0.00,0.10,0.00,24.30,28.50,31.25,14.33,43.02,1013.21,2034.00,3495.34,3114.94,3537.01,600.28,591.72,8.54,0000 0000 0000 0000 000000
2016-07-12 11:33:30,0.01,0.10,0.00,24.35,28.51,31.28,14.39,42.97,1013.22,2033.99,3495.13,3114.80,3537.00,600.31,591.60,8.59,0000 0000 0000 0000 000000
2016-07-12 11:38:32,0.01,0.10,0.00,24.36,28.52,31.30,14.36,42.99,1013.22,2033.96,3495.05,3114.32,3536.99,600.21,591.43,8.64,0000 0000 0000 0000 000000
2016-07-12 11:43:33,0.00,0.10,0.00,24.40,28.55,31.31,14.34,42.89,1013.23,2033.96,3495.00,3114.08,3536.96,600.46,591.71,8.69,0000 0000 0000 0000 000000
2016-07-12 11:48:34,0.00,0.10,0.00,24.38,28.56,31.34,14.27,42.88,1013.33,2033.89,3494.99,3114.02,3536.80,599.94,591.29,8.74,0000 0000 0000 0000 000000
2016-07-12 11:53:36,0.00,0.10,0.00,24.40,28.58,31.34,14.28,42.91,1013.52,2033.94,3494.99,3114.01,3536.85,600.08,591.51,8.80,0000 0000 0000 0000 000000
2016-07-12 11:58:37,-0.00,0.10,0.00,24.43,28.60,31.33,14.41,43.11,1013.64,2033.84,3494.97,3114.00,3536.35,600.46,591.86,8.85,0000 0000 0000 0000 000000
2016-07-12 12:03:38,-0.01,0.10,0.00,24.45,28.60,31.34,14.32,43.10,1013.62,2033.65,3494.89,3114.00,3536.06,599.86,591.24,8.90,0000 0000 0000 0000 000000
2016-07-12 12:08:39,-0.02,0.10,0.00,24.44,28.62,31.35,14.36,43.03,1013.66,2033.33,3494.43,3113.99,3536.01,600.25,591.68,8.95,0000 0000 0000 0000 000000
2016-07-12 12:13:41,-0.00,0.10,0.00,24.45,28.63,31.37,14.30,43.08,1013.68,2033.12,3494.07,3113.96,3536.00,599.99,591.32,9.00,0000 0000 0000 0000 000000
2016-07-12 12:18:42,0.00,0.10,0.00,24.44,28.65,31.38,14.27,42.89,1013.69,2033.04,3494.01,3113.77,3535.99,599.76,591.14,9.05,0000 0000 0000 0000 000000
2016-07-12 12:23:43,0.00,0.10,0.00,24.43,28.65,31.37,14.30,42.82,1013.69,2033.02,3494.00,3113.46,3535.98,600.08,591.54,9.10,0000 0000 0000 0000 000000
2016-07-12 12:28:45,0.01,0.10,0.00,24.44,28.66,31.38,14.22,42.71,1013.69,2033.01,3494.00,3113.10,3535.84,599.88,591.32,9.15,0000 0000 0000 0000 000000
2016-07-12 12:33:46,0.01,0.10,0.00,24.45,28.67,31.38,14.34,42.77,1013.69,2033.01,3493.92,3113.02,3535.36,599.98,591.39,9.20,0000 0000 0000 0000 000000
2016-07-12 12:38:47,0.00,0.10,0.00,24.39,28.67,31.40,14.26,42.79,1013.69,2033.01,3493.82,3113.01,3535.23,600.13,591.73,9.25,0000 0000 0000 0000 000000
2016-07-12 12:43:49,0.01,0.10,0.00,24.41,28.67,31.41,14.32,42.79,1013.69,2033.00,3493.26,3113.00,3535.04,599.82,591.36,9.30,0000 0000 0000 0000 000000
2016-07-12 12:48:50,0.00,0.10,0.00,24.42,28.67,31.41,14.32,42.86,1013.69,2033.00,3493.08,3113.00,3535.01,599.93,591.43,9.35,0000 0000 0000 0000 000000
2016-07-12 12:53:51,0.00,0.10,0.00,24.39,28.67,31.42,14.32,42.94,1013.69,2033.00,3493.00,3113.00,3535.00,600.08,591.70,9.40,0000 0000 0000 0000 000000
2016-07-12 12:58:53,0.02,0.10,0.00,24.38,28.67,31.40,14.29,42.88,1013.69,2033.00,3492.82,3112.75,3534.87,599.84,591.39,9.45,0000 0000 0000 0000 000000